Location: Bidwell Hollow
(37.7387°N, 90.1707°W)
Time: 04:49:45
(UTC+00:00)

Explorer 11/Cluster Stage 4 - Pass Details

Date: 10 May 2026
Orbit: 463 x 1173 km, 28.8° (Epoch: 11 June)

Event Time Altitude Azimuth Distance (km) Brightness Sun altitude
Exits shadow 08:37:40 11° 131° (SE) 1,672 8.3 -23.0°
Drops below altitude 10° 08:37:48 10° 129° (SE) 1,714 8.4 -23.0°
Sets 08:40:10 0° 115° (ESE) 2,536 9.4 -22.6°
